User: anonymous   Login
Location: Charbonni�res
(45.9952°N, 2.9982°E)
Time: 04:08:24
(UTC+00:00)
Language:

SJ 16-02 - Orbit

View from above orbital plane
View from above orbital plane
View from above satellite
View from above satellite

Ground track
Ground track

The orbit data is extracted from the following two-line orbital elements,

1 41634U 16043A   21058.89054224  .00000260  00000-0  33033-4 0  9996
2 41634  75.0054 315.0784 0006409  41.7273 318.4391 14.85772285253178
Epoch (UTC): 27 February 2021 21:22:22
Eccentricity: 0.0006409
inclination: 75.0054°
perigee height: 606 km
apogee height: 615 km
right ascension of ascending node: 315.0784°
argument of perigee: 41.7273°
revolutions per day: 14.85772285
mean anomaly at epoch: 318.4391°
orbit number at epoch: 25317

The dashed part of the orbit path shows where the satellite is in the earth's shadow,  

DLR